Location: Arrington
(35.8681°N, 86.7092°W)
Time: 10:54:11
(UTC+00:00)

STARLINK 1028 - Pass Details

Date: 23 November 2019
Orbit: 348 x 351 km, 53.0° (Epoch: 12 December)

Event Time Altitude Azimuth Distance (km) Brightness Sun altitude
Exits shadow 11:23:10 19° 237° (WSW) 915 4.4 -13.7°
Maximum altitude 11:25:06 67° 317° (NW) 382 2.6 -13.3°
Drops below altitude 10° 11:28:00 10° 41° (NE) 1,313 5.9 -12.8°
Sets 11:30:02 0° 44° (NE) 2,159 7.1 -12.4°
